Wind_Speed
3 3 4 4 4 4 4 4 4 4 4 4 5 5 5 5 6 6 6 6 7 8 8 8 8 8 8 8 8 8 8 8 8 8 8 8 8 8 8 9 8 9 8
2 3 3 3 3 4 4 4 4 4 3 3 4 4 5 5 5 5 5 6 7 8 8 8 8 8 8 8 8 8 7 7 7 7 7 7 8 8 8 8 8 8 8
2 2 3 3 3 3 4 4 4 3 3 3 3 4 4 4 4 4 5 6 6 7 7 7 7 7 7 7 6 6 6 6 6 6 7 7 7 8 8 8 8 8 8
2 3 3 3 3 4 4 4 4 4 3 3 3 4 4 4 4 4 4 5 6 6 6 6 5 5 5 5 5 5 5 5 5 6 6 6 6 7 7 7 7 7 8
3 4 4 4 4 4 4 5 4 4 4 3 3 3 4 3 3 3 4 4 5 4 4 4 4 3 4 4 3 4 4 4 4 4 5 5 6 6 6 6 7 7 7
4 4 4 5 5 5 5 5 5 5 5 4 4 4 4 4 3 3 3 3 3 3 3 3 2 2 2 2 2 2 3 3 3 3 3 3 4 4 5 5 5 6 6
5 5 6 6 6 6 5 6 6 6 6 5 5 5 5 4 4 3 3 3 3 3 3 2 2 1 1 1 1 1 1 1 1 2 2 2 3 3 3 4 4 5 5
5 6 6 7 7 7 7 7 7 7 7 6 6 6 6 5 5 4 3 3 3 3 2 2 2 2 1 1 1 1 1 0 0 0 1 1 1 1 2 2 3 3 3
6 7 7 7 7 8 8 8 8 8 8 7 7 7 7 7 6 5 5 4 3 3 3 4 3 3 2 2 2 2 1 1 1 1 1 1 1 1 1 1 1 2 2
7 7 8 7 7 8 8 9 10 9 9 8 8 8 8 7 7 6 6 5 4 4 4 4 4 3 3 3 2 2 2 2 2 2 2 2 2 2 1 1 1 0 0
8 9 9 8 8 8 9 9 10 10 10 9 9 9 8 8 7 7 6 6 5 5 4 4 4 4 4 4 3 3 3 3 3 3 3 4 3 3 2 2 2 1 1
9 9 9 9 9 9 9 10 10 11 10 9 9 10 9 8 8 8 7 6 6 5 5 5 5 5 4 4 4 4 4 4 4 3 4 4 4 3 3 3 3 3 2
9 9 9 9 10 10 10 10 10 10 10 9 9 10 10 9 8 8 8 8 7 6 6 5 5 5 4 4 4 5 5 5 5 4 4 4 5 4 4 4 4 4 4
9 9 10 10 10 11 11 12 11 11 11 10 10 9 10 10 9 9 9 9 8 7 7 6 6 5 5 5 5 5 6 5 5 5 5 5 5 5 5 5 5 5 5
9 9 9 10 11 12 12 13 13 12 11 11 11 11 10 10 10 10 10 9 9 9 8 7 7 6 5 5 5 5 6 7 5 5 5 5 5 6 6 6 6 6 6
9 9 10 10 11 12 12 12 12 13 12 12 12 12 12 11 10 10 10 10 9 9 8 7 7 7 7 6 6 5 6 6 7 7 6 6 7 7 7 6 6 7 7
9 9 10 10 11 11 12 12 13 13 13 12 12 13 13 12 11 11 11 10 10 9 8 8 8 7 7 6 6 6 5 6 6 7 7 6 7 7 7 7 7 7 8
9 8 10 10 10 11 11 12 13 13 13 13 12 12 12 12 12 12 11 11 10 9 8 8 7 7 7 6 6 6 5 5 5 6 7 6 6 7 7 7 7 8 8
9 9 10 10 9 10 11 11 12 13 13 13 12 12 12 12 12 12 12 11 10 9 8 8 8 7 7 7 6 6 6 6 6 6 7 7 7 8 8 8 8 8 9
9 9 10 10 10 10 10 11 12 13 13 13 12 12 12 12 13 12 11 11 11 10 9 9 8 7 7 7 7 7 6 6 6 6 6 7 7 8 8 8 8 8 9
9 9 10 10 10 9 9 9 11 13 13 13 13 12 12 12 12 13 12 12 11 11 10 9 8 8 7 7 7 6 6 6 6 6 7 7 7 7 8 8 9 8 8
9 10 10 10 10 10 10 9 10 12 13 13 12 12 12 13 12 12 12 12 12 11 10 9 9 8 8 8 7 7 7 6 6 6 6 6 7 7 7 7 8 8 9
9 10 11 11 11 11 11 10 10 11 12 12 12 12 12 12 13 12 12 12 11 11 10 10 9 8 8 7 7 7 7 7 6 6 5 6 6 6 6 6 7 7 8
9 10 11 11 12 12 12 11 11 11 11 12 12 12 11 11 12 12 12 12 12 11 10 9 9 8 7 6 6 6 6 6 6 5 5 5 5 6 6 7 7 7 7
10 10 11 11 12 12 12 12 11 11 12 12 12 12 11 11 12 13 12 12 12 10 10 9 8 7 6 6 6 6 6 5 5 5 4 4 4 5 5 6 7 6 7
11 10 11 11 12 13 12 12 12 11 12 12 12 12 11 11 11 12 12 12 12 11 10 9 8 7 6 6 5 5 5 5 5 5 4 4 5 5 5 6 6 6 6
Wind_Direction
118 124 125 127 135 139 137 137 140 139 137 134 138 137 133 129 131 134 133 128 126 125 120 117 117 117 113 110 109 108 106 103 100 99 96 93 92 93 90 88 86 85 82
124 132 141 141 148 152 154 153 154 153 150 146 150 145 140 139 136 134 140 133 129 128 125 123 119 116 113 112 112 111 109 105 102 98 94 91 92 92 89 86 85 84 83
156 159 162 167 166 168 170 171 169 169 171 166 160 155 147 144 139 136 138 139 137 131 130 126 123 118 116 112 111 113 110 107 103 98 94 92 94 93 90 86 86 83 82
201 192 190 189 188 191 191 187 186 185 185 181 172 165 154 149 140 133 137 143 144 140 135 132 124 118 115 110 108 110 111 108 105 99 94 92 96 97 91 86 85 84 83
217 210 209 203 200 202 202 200 202 201 199 195 190 182 172 162 151 149 151 153 149 149 145 140 131 118 114 111 106 108 107 109 104 99 96 94 98 99 94 88 86 85 83
216 214 217 214 209 205 204 206 209 212 213 211 209 204 195 187 175 174 172 172 167 167 166 159 149 130 120 113 113 110 106 105 100 105 100 91 101 100 98 94 88 81 78
225 223 224 225 225 222 215 215 218 223 224 225 225 216 209 202 195 195 194 192 188 188 191 192 185 160 154 141 136 119 123 119 98 100 103 101 110 106 108 98 85 77 76
227 225 226 228 231 231 229 226 224 226 228 229 229 223 219 218 216 211 208 210 212 219 226 224 224 221 225 217 202 198 204 211 214 169 167 147 142 126 119 105 85 72 70
231 228 228 231 232 235 233 231 229 231 231 233 230 231 226 225 226 224 228 228 227 235 245 244 241 244 240 242 242 238 242 258 259 254 222 206 218 214 192 151 88 69 66
234 233 232 232 237 240 239 236 233 233 233 234 232 230 228 227 229 230 231 234 240 245 254 256 255 258 263 261 261 255 253 253 256 257 244 246 261 254 251 239 258 289 330
234 235 237 238 239 241 241 238 234 233 234 235 234 234 235 233 232 234 236 237 242 247 253 263 265 260 262 260 258 255 260 256 264 259 254 252 255 252 251 256 263 274 282
232 231 235 241 240 240 240 238 235 233 234 235 234 234 236 236 236 237 240 241 244 248 253 262 265 267 266 259 258 263 265 263 266 267 265 257 247 248 258 265 267 263 263
234 237 235 240 240 238 238 237 235 232 233 233 232 236 239 238 239 241 242 242 244 249 254 261 266 267 263 264 267 267 268 262 257 266 269 264 256 252 259 269 269 270 267
235 238 238 241 239 237 238 237 236 235 234 233 236 240 239 238 240 243 241 243 246 249 254 262 270 264 260 264 266 267 271 267 268 272 270 265 261 258 261 266 269 274 273
235 237 239 240 240 241 241 237 236 234 233 236 237 239 238 239 238 239 243 247 249 251 256 262 264 261 261 265 269 269 271 272 271 281 272 264 262 261 261 265 267 268 270
232 232 236 238 241 243 242 238 234 232 234 238 235 236 237 237 234 234 239 244 248 251 253 256 257 262 263 264 269 268 270 272 270 274 271 265 263 259 259 266 271 270 268
233 230 233 237 239 242 245 238 235 236 236 237 237 236 237 238 239 236 237 240 244 247 251 253 254 260 259 260 260 261 266 270 267 265 266 260 262 263 264 265 272 271 269
235 240 239 241 242 242 244 239 237 235 234 237 235 232 234 237 236 234 234 237 240 242 247 248 249 254 255 253 254 256 263 269 271 269 268 262 263 266 263 265 269 270 271
239 245 243 244 246 245 242 239 237 234 233 233 230 228 229 231 233 233 232 235 235 238 241 244 248 252 250 249 249 253 261 270 273 274 270 266 266 267 263 264 266 271 275
239 243 242 244 246 246 243 238 236 233 233 233 232 229 229 231 230 228 230 230 232 235 235 239 243 247 246 246 249 252 257 269 274 276 271 266 266 265 265 266 267 270 274
238 241 243 244 246 246 243 237 231 229 229 230 232 230 229 226 225 228 230 230 230 229 230 236 238 241 241 243 245 249 258 264 270 270 269 267 267 269 271 272 272 270 276
239 241 242 242 244 240 233 229 225 227 227 228 227 227 226 226 226 228 229 227 226 226 228 232 235 238 239 240 247 251 255 261 267 268 272 271 269 274 281 283 278 274 276
237 243 244 241 239 233 227 225 224 225 225 225 224 222 223 224 225 225 224 222 223 225 226 231 233 232 230 237 243 245 250 255 263 267 271 272 274 279 283 289 288 281 276
238 240 239 237 232 231 228 227 226 225 222 224 223 219 219 219 219 220 219 218 219 220 225 227 228 229 229 235 238 238 243 252 258 264 273 272 277 281 285 287 287 279 277
240 238 234 231 228 227 226 226 225 225 223 221 217 216 216 215 215 216 217 216 217 218 220 220 221 225 228 232 233 231 236 246 251 261 270 277 280 287 290 287 285 279 278
236 235 232 226 225 224 223 223 222 223 220 216 215 212 212 210 210 211 213 213 215 217 216 216 217 222 228 230 227 228 236 247 253 264 270 275 281 289 294 295 290 281 280
Height
5881 5880 5881 5882 5883 5883 5884 5885 5886 5886 5887 5887 5887 5888 5888 5888 5888 5888 5889 5889 5889 5889 5889 5890 5890 5890 5890 5890 5890 5890 5890 5890 5890 5889 5889 5889 5889 5888 5888 5887 5887 5886 5886
5881 5881 5882 5882 5883 5884 5884 5885 5886 5887 5887 5888 5888 5889 5889 5889 5889 5889 5889 5889 5890 5890 5891 5891 5891 5891 5891 5891 5891 5891 5891 5891 5891 5891 5890 5890 5890 5889 5889 5888 5888 5888 5887
5881 5881 5882 5882 5883 5884 5885 5886 5886 5887 5888 5888 5889 5889 5890 5890 5890 5890 5890 5890 5891 5891 5891 5891 5892 5892 5892 5892 5892 5892 5892 5892 5892 5892 5892 5891 5891 5890 5890 5890 5889 5889 5888
5881 5881 5882 5882 5883 5884 5885 5886 5887 5887 5888 5889 5889 5890 5890 5891 5891 5891 5890 5890 5891 5892 5892 5892 5893 5893 5893 5893 5893 5893 5893 5893 5893 5893 5893 5893 5892 5892 5891 5891 5891 5890 5890
5881 5881 5882 5882 5883 5884 5885 5886 5887 5887 5888 5889 5890 5890 5891 5891 5892 5892 5892 5892 5892 5892 5893 5893 5894 5894 5894 5894 5894 5894 5894 5894 5894 5894 5894 5894 5893 5893 5893 5892 5892 5892 5891
5880 5881 5881 5882 5883 5883 5884 5885 5886 5887 5888 5889 5890 5891 5891 5892 5892 5892 5892 5893 5893 5893 5894 5894 5894 5894 5895 5895 5895 5895 5895 5895 5895 5895 5895 5894 5894 5894 5894 5893 5893 5893 5892
5880 5880 5881 5881 5882 5883 5884 5885 5886 5887 5888 5889 5890 5890 5891 5892 5892 5893 5893 5893 5893 5894 5894 5894 5895 5895 5895 5895 5895 5895 5895 5895 5895 5895 5895 5895 5895 5895 5895 5894 5894 5894 5893
5878 5879 5880 5881 5881 5882 5883 5884 5885 5887 5888 5889 5889 5890 5891 5892 5892 5893 5893 5893 5894 5894 5894 5894 5895 5895 5895 5895 5895 5895 5895 5896 5896 5896 5896 5895 5895 5895 5895 5895 5895 5894 5894
5876 5877 5878 5880 5880 5881 5882 5883 5884 5886 5887 5888 5889 5889 5890 5891 5892 5893 5893 5893 5894 5894 5894 5894 5895 5895 5895 5895 5895 5895 5895 5895 5896 5896 5896 5896 5896 5896 5895 5895 5895 5895 5894
5875 5876 5878 5879 5880 5880 5881 5882 5883 5884 5886 5887 5888 5888 5889 5890 5891 5892 5893 5893 5893 5893 5894 5894 5894 5895 5895 5895 5895 5895 5895 5895 5895 5895 5895 5896 5896 5895 5895 5895 5895 5895 5894
5874 5875 5876 5877 5878 5879 5880 5881 5882 5883 5884 5885 5886 5887 5888 5889 5890 5891 5892 5892 5893 5893 5893 5893 5893 5894 5894 5894 5894 5894 5894 5894 5894 5895 5895 5895 5895 5895 5895 5895 5895 5894 5894
5872 5873 5875 5876 5877 5878 5879 5879 5880 5882 5883 5884 5885 5886 5887 5888 5889 5890 5891 5891 5892 5892 5892 5892 5893 5893 5893 5893 5893 5894 5893 5893 5893 5894 5894 5894 5894 5894 5894 5894 5894 5894 5894
5871 5871 5873 5874 5875 5876 5877 5878 5879 5880 5882 5883 5884 5885 5886 5887 5888 5889 5890 5890 5891 5891 5891 5891 5892 5892 5892 5892 5893 5893 5892 5892 5893 5893 5893 5893 5893 5893 5893 5893 5893 5893 5893
5869 5870 5871 5872 5873 5874 5875 5876 5877 5878 5880 5881 5882 5883 5885 5886 5886 5887 5888 5889 5889 5890 5890 5890 5891 5891 5891 5891 5891 5891 5891 5891 5891 5891 5891 5892 5892 5892 5892 5892 5892 5892 5892
5867 5868 5869 5870 5871 5872 5873 5874 5875 5876 5878 5879 5880 5882 5883 5884 5885 5886 5886 5887 5888 5888 5889 5889 5889 5889 5890 5890 5890 5890 5890 5890 5890 5890 5890 5890 5891 5891 5891 5891 5891 5891 5890
5865 5866 5867 5867 5868 5869 5871 5871 5873 5874 5875 5877 5878 5879 5881 5882 5883 5884 5885 5885 5886 5887 5887 5888 5888 5888 5889 5889 5889 5889 5889 5889 5889 5889 5889 5889 5889 5889 5889 5889 5889 5889 5889
5862 5863 5864 5865 5866 5866 5868 5869 5870 5871 5873 5874 5875 5877 5878 5879 5881 5882 5883 5884 5884 5885 5886 5886 5887 5887 5887 5888 5888 5888 5888 5888 5888 5887 5887 5887 5887 5887 5887 5887 5887 5887 5887
5859 5861 5862 5863 5863 5864 5865 5866 5867 5869 5870 5872 5873 5874 5876 5877 5878 5880 5881 5882 5883 5883 5884 5885 5885 5886 5886 5886 5886 5886 5886 5886 5886 5886 5886 5886 5886 5885 5885 5885 5885 5885 5885
5857 5858 5859 5860 5861 5861 5863 5864 5865 5866 5867 5869 5870 5872 5873 5875 5876 5877 5879 5880 5880 5881 5882 5883 5884 5884 5884 5885 5885 5885 5885 5885 5885 5884 5884 5884 5884 5884 5883 5883 5883 5883 5883
5854 5856 5857 5857 5858 5859 5860 5861 5862 5864 5865 5867 5868 5869 5871 5872 5873 5875 5876 5877 5878 5880 5880 5881 5882 5882 5883 5883 5883 5883 5883 5883 5883 5883 5882 5882 5882 5882 5881 5881 5881 5881 5881
5852 5853 5854 5855 5856 5857 5858 5858 5860 5861 5863 5864 5865 5867 5868 5870 5871 5873 5874 5875 5876 5878 5879 5880 5880 5881 5881 5881 5882 5882 5882 5882 5881 5881 5881 5881 5880 5880 5880 5879 5879 5879 5878
5849 5850 5851 5852 5853 5854 5855 5856 5857 5859 5860 5862 5863 5864 5866 5867 5869 5870 5872 5873 5874 5876 5877 5878 5878 5879 5879 5880 5880 5880 5880 5881 5880 5880 5879 5879 5879 5878 5878 5877 5877 5876 5876
5846 5847 5848 5849 5850 5852 5853 5854 5855 5856 5858 5859 5861 5862 5863 5865 5866 5868 5870 5871 5872 5874 5875 5876 5876 5877 5877 5878 5878 5879 5879 5879 5878 5878 5878 5878 5877 5877 5876 5875 5875 5874 5874
5843 5844 5845 5846 5847 5849 5850 5852 5853 5854 5856 5857 5858 5860 5861 5863 5864 5866 5867 5868 5870 5871 5873 5874 5874 5875 5875 5876 5876 5877 5877 5877 5877 5877 5877 5876 5876 5875 5874 5874 5873 5873 5872
5839 5841 5841 5842 5844 5846 5848 5850 5851 5852 5854 5855 5856 5858 5859 5860 5862 5864 5865 5866 5868 5869 5871 5872 5873 5873 5874 5874 5874 5875 5875 5875 5875 5875 5875 5875 5874 5873 5873 5872 5871 5871 5870
5836 5837 5838 5839 5841 5843 5845 5847 5848 5850 5851 5853 5854 5856 5857 5858 5860 5861 5863 5864 5866 5867 5868 5870 5871 5871 5872 5872 5873 5873 5873 5874 5874 5874 5873 5873 5873 5872 5871 5870 5870 5869 5868